Showing default

JILIN-01 GAOFEN 3B, 46454

Orbit data source: Space-Track

JILIN-01 GAOFEN 3B, 46454 is a payload satellite owned by Changguang WJ (CN) in SSO that was launched on Tue, 15 Sep 2020 UTC via a CHANG ZHENG 11 launch vehicle from the Yellow Sea Launch Area, China (YSLA). Payload-class satellites include a variety of spacecraft equipped with specific instruments for various scientific and technological missions. These include communications satellites like Starlink; space stations such as the ISS; scientific satellites like the Hubble; Earth observation satellites from companies like Planet Labs, Umbra, and HawkEye 360; GPS; miniature CubeSats for education and research; and military/defense satellites.

Loading next visibility...
Identifier
46454, 2020-065A
Orbit
SSO
Last TLE update
4 hours ago
Origin
Flag of CNCGSTL (CN / PRC)
Manufacturer
Changguang WJ
Mission
Operational Commercial Imaging
Bus & Motor
JL-1, Unknown motor
Mass
42 kg wet, 42 kg dry
Launch date (UTC)
2020-09-15 (5 years ago)
Launch vehicle
CHANG ZHENG 11
Launch site
Yellow Sea Launch Area, China (YSLA)
Object type
Payload
Rocket body
Debris
Shape & HBR
Box + 2 Pan, 1.5 m
Radar Cross Section
2.000 m², Medium (>0.1 m² and < 1m²)

Expand to show TLE details & history

TLE from 4 hours ago
0 JILIN-01 GAOFEN 3B
1 46454U 20065A   25130.53913889  .00027262  00000-0  63052-3 0  9991
2 46454  97.2868 178.4230 0006852 140.7660 219.4085 15.42433143257615
Epoch: 2025-05-10T12:56Z
Definitive object data (Epoch: 2025-05-10T12:56:21.6Z)
Latitude
-0.00003°
Longitude
115.75352°
Altitude
445.666 km
Speed
7.643 km/s
True Right ascension
11h 53m 41s
True Declination
0° 00' 00"
Sunlit
Object was in full shadow at TLE epoch
Visualization TLE readout
Latitude
-82.52737°
Longitude
-139.87394°
Altitude
470.172 km
Speed
7.628 km/s
Apparent Right ascension
14h 07m 00s
Apparent Declination
-64° 44' 09"
Sunlit
Object is in full shadow
Visualization observer readout
Local Sidereal Time
01:27:16
Azimuth
189.852° SSW
Elevation
-64.519°
Doppler factor
1
Orbital elements
Apogee altitude
440.531 km
Perigee altitude
431.193 km
Semi-major axis
6,813.999 km
Eccentricity
0.0006852
Inclination
97.2868°
RAAN
178.423°
Arg. of periapsis
140.766°
True anomaly
219.35869°
Mean anomaly
219.4085°
Eccentric anomaly
219.38359°
Mean motion
3.85869 °/min
BSTAR
0.00063052
Orbital period
93.3 mins
Loading maneuver chart data...
Loading SW <> Apogee altitude chart data...
Loading historical data...
Loading historical data...
Loading historical data...
Loading historical data...
Loading historical data...
Loading historical data...
Loading historical data...

JILIN-01 GAOFEN 3B Visibility forecast

Observer location: undefined°, undefined°

Span
Click to sort rows by Start time (UTC) header in descending order
Start Az.
Max El. time (UTC)
Max El. Az.
Max El.
End time (UTC)
End Az.
6 mins2025-05-11 03:04:43.477Z158.835° S2025-05-11 03:07:43.477Z65.493° ENE42.84°2025-05-11 03:10:43.477Z353.86° N
5 mins2025-05-11 15:58:43.477Z16.529° NNE2025-05-11 16:00:43.477Z106.208° ESE44.479°2025-05-11 16:03:43.477Z188.778° SSW
|